When you browse on this site, cookies collect data to enhance your experience and personalize the content and advertising you see.
Visit our Privacy Policy to learn more. By continuing to use the site, you agree to this use of cookies and data.
  • In Austria
  • List of Countries
  • For 7 days
  • Water Temperature
  • Satellite Maps
  • Weather Map
  • News
  • Weather Widgets
  • user-avatar
    Login

    Hourly Weather Cookeville

    Today, 24 April, Wednesday

    Time Temperature Precipitation Wind Pressure Humidity
    00:00 +15°C° 0 mm 1 mps 731 mmHg 89%
    01:00 +15°C° 0 mm 1 mps 731 mmHg 90%
    02:00 +14°C° 0 mm 1 mps 731 mmHg 90%
    03:00 +14°C° 0 mm 1 mps 731 mmHg 90%
    04:00 +14°C° 0 mm 1 mps 731 mmHg 90%
    05:00 +14°C° 0 mm 1 mps 731 mmHg 89%
    06:00 +14°C° 0 mm 1 mps 731 mmHg 88%
    07:00 +17°C° 0 mm 2 mps 731 mmHg 80%
    08:00 +19°C° 0 mm 2 mps 731 mmHg 72%
    09:00 +23°C° 0 mm 2 mps 731 mmHg 64%
    10:00 +24°C° 0 mm 3 mps 731 mmHg 60%
    11:00 +25°C° 0 mm 3 mps 731 mmHg 57%
    12:00 +26°C° 0 mm 4 mps 731 mmHg 53%
    13:00 +26°C° 0 mm 3 mps 730 mmHg 53%
    14:00 +26°C° 0 mm 3 mps 730 mmHg 52%
    15:00 +27°C° 0 mm 3 mps 729 mmHg 52%
    16:00 +25°C° 0 mm 3 mps 729 mmHg 60%
    17:00 +23°C° 0 mm 2 mps 729 mmHg 68%
    18:00 +21°C° 0 mm 2 mps 728 mmHg 76%
    19:00 +20°C° 0.1 mm 2 mps 729 mmHg 79%
    20:00 +19°C° 0.1 mm 2 mps 729 mmHg 83%
    21:00 +17°C° 0.1 mm 2 mps 729 mmHg 86%
    22:00 +18°C° 0 mm 2 mps 729 mmHg 85%
    23:00 +18°C° 0 mm 2 mps 729 mmHg 83%

    Tomorrow, 25 April, Thursday

    Time Temperature Precipitation Wind Pressure Humidity
    00:00 +18°C° 0 mm 2 mps 729 mmHg 82%
    01:00 +17°C° 0.1 mm 2 mps 729 mmHg 85%
    02:00 +17°C° 0.1 mm 2 mps 728 mmHg 88%
    03:00 +16°C° 0.1 mm 2 mps 728 mmHg 90%
    04:00 +16°C° 0.2 mm 2 mps 728 mmHg 92%
    05:00 +16°C° 0.2 mm 1 mps 728 mmHg 93%
    06:00 +16°C° 0.2 mm 1 mps 729 mmHg 94%
    07:00 +18°C° 0 mm 1 mps 729 mmHg 92%
    08:00 +19°C° 0 mm 1 mps 729 mmHg 89%
    09:00 +20°C° 0 mm 1 mps 729 mmHg 86%
    10:00 +20°C° 0.1 mm 2 mps 729 mmHg 82%
    11:00 +21°C° 0.1 mm 2 mps 729 mmHg 78%
    12:00 +23°C° 0.1 mm 2 mps 728 mmHg 75%
    13:00 +23°C° 0.4 mm 2 mps 728 mmHg 76%
    14:00 +22°C° 0.4 mm 3 mps 727 mmHg 77%
    15:00 +21°C° 0.4 mm 3 mps 727 mmHg 78%
    16:00 +20°C° 0.8 mm 3 mps 727 mmHg 83%
    17:00 +18°C° 0.8 mm 2 mps 726 mmHg 89%
    18:00 +18°C° 0.8 mm 1 mps 726 mmHg 95%
    19:00 +17°C° 2.8 mm 2 mps 726 mmHg 95%
    20:00 +17°C° 2.8 mm 2 mps 726 mmHg 96%
    21:00 +17°C° 2.8 mm 2 mps 726 mmHg 97%
    22:00 +17°C° 1.4 mm 3 mps 725 mmHg 97%
    23:00 +17°C° 1.4 mm 3 mps 725 mmHg 97%

    Day after tomorrow, 26 April, Friday

    Time Temperature Precipitation Wind Pressure Humidity
    00:00 +17°C° 1.4 mm 3 mps 725 mmHg 97%
    01:00 +16°C° 0.3 mm 3 mps 725 mmHg 98%
    02:00 +15°C° 0.3 mm 2 mps 725 mmHg 98%
    03:00 +14°C° 0.3 mm 2 mps 725 mmHg 98%
    04:00 +14°C° 0 mm 2 mps 726 mmHg 97%
    05:00 +13°C° 0 mm 3 mps 726 mmHg 96%
    06:00 +14°C° 0 mm 4 mps 727 mmHg 96%
    07:00 +14°C° 0 mm 4 mps 728 mmHg 89%
    08:00 +15°C° 0 mm 4 mps 729 mmHg 83%
    09:00 +17°C° 0 mm 4 mps 729 mmHg 77%
    10:00 +18°C° 0 mm 4 mps 730 mmHg 68%
    11:00 +19°C° 0 mm 4 mps 730 mmHg 59%
    12:00 +21°C° 0 mm 4 mps 730 mmHg 50%
    13:00 +21°C° 0 mm 4 mps 730 mmHg 50%
    14:00 +21°C° 0 mm 4 mps 730 mmHg 50%
    15:00 +21°C° 0 mm 4 mps 730 mmHg 50%
    16:00 +19°C° 0 mm 3 mps 731 mmHg 57%
    17:00 +17°C° 0 mm 3 mps 731 mmHg 65%
    18:00 +16°C° 0 mm 2 mps 731 mmHg 72%
    19:00 +14°C° 0 mm 1 mps 731 mmHg 75%
    20:00 +13°C° 0 mm 1 mps 732 mmHg 77%
    21:00 +11°C° 0 mm 0 mps 732 mmHg 80%
    22:00 +10°C° 0 mm 0 mps 732 mmHg 80%
    23:00 +10°C° 0 mm 0 mps 732 mmHg 80%

    27 April, Saturday

    Time Temperature Precipitation Wind Pressure Humidity
    00:00 +11°C° 0 mm 1 mps 732 mmHg 80%
    01:00 +11°C° 0 mm 1 mps 731 mmHg 81%
    02:00 +11°C° 0 mm 1 mps 731 mmHg 82%
    03:00 +10°C° 0 mm 1 mps 731 mmHg 84%
    04:00 +11°C° 0 mm 1 mps 731 mmHg 83%
    05:00 +11°C° 0 mm 1 mps 731 mmHg 82%
    06:00 +12°C° 0 mm 1 mps 732 mmHg 81%
    07:00 +15°C° 0 mm 1 mps 731 mmHg 72%
    08:00 +17°C° 0 mm 2 mps 731 mmHg 64%
    09:00 +20°C° 0 mm 2 mps 731 mmHg 55%
    10:00 +21°C° 0 mm 3 mps 731 mmHg 51%
    11:00 +22°C° 0 mm 3 mps 730 mmHg 47%
    12:00 +25°C° 0 mm 4 mps 730 mmHg 43%
    13:00 +25°C° 0 mm 4 mps 729 mmHg 45%
    14:00 +25°C° 0 mm 4 mps 729 mmHg 48%
    15:00 +25°C° 0 mm 4 mps 728 mmHg 50%
    16:00 +23°C° 0 mm 4 mps 728 mmHg 57%
    17:00 +21°C° 0 mm 3 mps 727 mmHg 65%
    18:00 +20°C° 0 mm 3 mps 727 mmHg 72%
    19:00 +19°C° 0 mm 3 mps 727 mmHg 73%
    20:00 +18°C° 0 mm 3 mps 727 mmHg 73%
    21:00 +17°C° 0 mm 3 mps 727 mmHg 74%
    22:00 +17°C° 0 mm 3 mps 727 mmHg 72%
    23:00 +17°C° 0 mm 4 mps 727 mmHg 70%

    28 April, Sunday

    Time Temperature Precipitation Wind Pressure Humidity
    00:00 +17°C° 0 mm 4 mps 727 mmHg 68%
    01:00 +17°C° 0.4 mm 4 mps 727 mmHg 73%
    02:00 +16°C° 0.4 mm 5 mps 727 mmHg 77%
    03:00 +15°C° 0.4 mm 5 mps 727 mmHg 82%
    04:00 +15°C° 0.1 mm 5 mps 728 mmHg 85%
    05:00 +14°C° 0.1 mm 5 mps 728 mmHg 87%
    06:00 +13°C° 0.1 mm 5 mps 729 mmHg 90%
    07:00 +12°C° 0 mm 5 mps 730 mmHg 83%
    08:00 +12°C° 0 mm 5 mps 731 mmHg 76%
    09:00 +11°C° 0 mm 4 mps 732 mmHg 70%
    10:00 +13°C° 0 mm 4 mps 733 mmHg 65%
    11:00 +14°C° 0 mm 4 mps 733 mmHg 61%
    12:00 +15°C° 0 mm 4 mps 734 mmHg 57%
    13:00 +15°C° 0 mm 4 mps 734 mmHg 57%
    14:00 +17°C° 0 mm 4 mps 734 mmHg 56%
    15:00 +17°C° 0 mm 4 mps 734 mmHg 56%
    16:00 +16°C° 0 mm 3 mps 734 mmHg 61%
    17:00 +13°C° 0 mm 3 mps 735 mmHg 67%
    18:00 +12°C° 0 mm 3 mps 735 mmHg 73%
    19:00 +11°C° 0 mm 3 mps 736 mmHg 74%
    20:00 +9°C° 0 mm 3 mps 736 mmHg 76%
    21:00 +8°C° 0 mm 3 mps 737 mmHg 78%
    22:00 +7°C° 0 mm 3 mps 737 mmHg 79%
    23:00 +7°C° 0 mm 3 mps 737 mmHg 79%

    29 April, Monday

    Time Temperature Precipitation Wind Pressure Humidity
    00:00 +5°C° 0 mm 3 mps 736 mmHg 80%
    01:00 +5°C° 0 mm 3 mps 736 mmHg 82%
    02:00 +5°C° 0 mm 2 mps 736 mmHg 83%
    03:00 +5°C° 0 mm 2 mps 736 mmHg 85%
    04:00 +5°C° 0 mm 2 mps 737 mmHg 82%
    05:00 +6°C° 0 mm 2 mps 737 mmHg 79%
    06:00 +6°C° 0 mm 2 mps 737 mmHg 77%
    07:00 +9°C° 0 mm 3 mps 737 mmHg 67%
    08:00 +13°C° 0 mm 3 mps 737 mmHg 58%
    09:00 +17°C° 0 mm 3 mps 737 mmHg 48%
    10:00 +19°C° 0 mm 3 mps 737 mmHg 47%
    11:00 +21°C° 0 mm 3 mps 736 mmHg 45%
    12:00 +22°C° 0 mm 3 mps 736 mmHg 44%
    13:00 +24°C° 0 mm 3 mps 736 mmHg 45%
    14:00 +24°C° 0 mm 3 mps 735 mmHg 47%
    15:00 +25°C° 0 mm 4 mps 735 mmHg 48%
    16:00 +22°C° 0 mm 3 mps 735 mmHg 54%
    17:00 +20°C° 0 mm 3 mps 735 mmHg 60%
    18:00 +18°C° 0 mm 3 mps 735 mmHg 66%
    19:00 +18°C° 0 mm 4 mps 735 mmHg 63%
    20:00 +17°C° 0 mm 5 mps 735 mmHg 59%
    21:00 +16°C° 0 mm 5 mps 735 mmHg 56%
    22:00 +16°C° 0 mm 6 mps 735 mmHg 58%
    23:00 +16°C° 0 mm 6 mps 735 mmHg 59%
    Show more